Regional Weather Roundup
Issued by NWS

Home | Current Version | Previous Version | Text Only | Print | Product List | Glossary On
Versions: 1 2 3 4 5 6 7 8 9 10 11 12 13 14 15 16 17 18 19 20 21 22 23 24 25 26 27 28 29 30 31 32 33 34 35 36 37 38 39 40 41 42 43 44 45 46 47 48 49 50
000
ASUS44 KOUN 032210
RWROK

WEATHER ROUNDUP FOR OKLAHOMA
NATIONAL WEATHER SERVICE NORMAN OK
500 PM CDT FRI JUL 03 2015

NOTE: "FAIR" INDICATES FEW OR NO CLOUDS BELOW 12,000 FEET WITH NO
      SIGNIFICANT WEATHER AND/OR OBSTRUCTIONS TO VISIBILITY.

OKZ001>007-009>012-014-015-017-032300-
NORTHWEST OKLAHOMA AND THE PANHANDLE

CITY           SKY/WX    TMP DP  RH WIND       PRES   REMARKS
GAGE           PTSUNNY   78  64  61 SE7       29.98F
GUYMON         PTSUNNY   88  56  33 SE9       29.96F
ENID/WOODRING  MOSUNNY   93  59  31 NW12      29.90S HX  92
$$

OKZ016-021>023-033>039-044-045-032300-
SOUTHWEST OKLAHOMA

CITY           SKY/WX    TMP DP  RH WIND       PRES   REMARKS
LAWTON/REGL    MOSUNNY   95  66  38 NE6       29.89F HX  98
LAWTON/FT SILL MOSUNNY   92  71  51 VRB3      29.88F HX  98
FREDERICK      CLOUDY    91  68  46 W7        29.87F THUNDER HX  95
CLINTON        MOSUNNY   92  60  34 VRB3      29.95F HX  91
HOBART         MOSUNNY   90  63  40 SE10      29.92F HX  91
ALTUS AFB      MOSUNNY   95  64  35 E7        29.89F HX  97
$$

OKZ018>020-024>031-032300-
CENTRAL OKLAHOMA

CITY           SKY/WX    TMP DP  RH WIND       PRES   REMARKS
OKLAHOMA CITY  PTSUNNY   85  69  58 S13       29.92S
OKC/WILEY POST CLOUDY    88  67  49 E5        29.91F HX  91
OKC/TINKER AFB PTSUNNY   85  67  54 S15       29.91S
STILLWATER     SUNNY     91  62  37 NW10      29.89F HX  91
GUTHRIE        MOSUNNY   90  67  46 CALM      29.89F HX  93
$$

OKZ008-013-054>072-032300-
NORTHEAST OKLAHOMA

CITY           SKY/WX    TMP DP  RH WIND       PRES   REMARKS
TULSA          MOSUNNY   91  67  44 NW12      29.86S HX  94
TULSA/JONES    SUNNY     91  62  37 VRB7      29.86S HX  91
PONCA CITY     SUNNY     90  62  39 N12       29.89F HX  90
BARTLESVILLE   SUNNY     88  69  53 VRB3      29.88F HX  92
MUSKOGEE       LGT RAIN  80  70  71 N17G29    29.88S
$$

OKZ032-040>043-046>053-073>077-032300-
SOUTH CENTRAL/SOUTHEAST OKLAHOMA

CITY           SKY/WX    TMP DP  RH WIND       PRES   REMARKS
ARDMORE/DWNTWN MOSUNNY   88  72  58 SW6       29.90F HX  94
MCALESTER      MOSUNNY   89  75  63 SW10      29.88F HX  99
$$



USA.gov is the U.S. government's official web portal to all federal, state and local government web resources and services.